#timestamp,LO_Frequency,Hit,StdDev 
1516309215.9,286047001.8,N
1516309235.7,286047001.7,N
1516309255.6,286047001.4,N
1516309275.4,286047001.3,N
1516309295.2,286047004.3,Y
1516309315.1,286047002.8,P
1516309316.0,286047002.8,P
1516309335.8,286046999.7,N
1516309355.6,286047002.8,N
1516309375.4,286047002.7,N
1516309395.3,286047002.4,N
1516309415.1,286047002.3,N
1516309435.8,286047002.5,N
1516309455.7,286047002.1,N
1516309475.5,286047002.1,N
1516309495.3,286047002.0,N
1516309515.2,286047001.6,N
1516309535.9,286047001.8,N
1516309555.7,286047001.8,N
1516309575.6,286047001.7,N
1516309595.4,286047001.7,N
1516309615.2,286047001.4,N
1516309635.1,286047001.3,N
1516309636.0,286047001.3,N
1516309655.8,286047004.3,Y
1516309675.6,286047000.1,P
1516309695.5,286046999.8,N
1516309715.3,286046999.7,N
1516309735.1,286047002.8,Y
1516309755.9,286047000.1,P
1516309775.7,286047000.1,N
1516309795.5,286046999.7,N
1516309815.3,286046999.7,N
1516309835.2,286046999.7,N
1516309855.0,286046999.7,N
1516309855.9,286046999.7,N
1516309875.8,286047002.8,Y
1516309895.6,286047002.4,P
1516309915.4,286047002.3,N
1516309935.2,286047002.3,N
1516309955.1,286047002.6,N
1516309956.0,286047002.6,N
1516309975.8,286047002.6,N
1516309995.6,286047002.5,N
1516310015.5,286047002.5,N
1516310035.3,286047002.1,N
1516310055.1,286047002.0,N
1516310075.9,286047002.0,N
1516310095.7,286047002.0,N
1516310115.5,286047001.9,N
1516310135.4,286047001.6,N
1516310155.2,286047001.9,N
1516310175.0,286047001.6,N
1516310175.9,286047001.6,N
1516310195.8,286047001.6,N
1516310215.6,286047001.5,N
1516310235.4,286047001.6,N
1516310255.2,286047001.7,N
1516310275.1,286047001.8,Y
1516310276.0,286047001.8,P
1516310295.8,286047000.0,N
1516310315.7,286046999.9,N
1516310335.5,286047000.0,N
1516310355.3,286046999.9,N
1516310375.1,286046999.9,N
1516310395.9,286047000.2,N
1516310415.7,286047000.2,N
1516310435.5,286047000.2,N
1516310455.4,286047000.2,N
1516310475.2,286047000.2,N
1516310495.0,286047000.2,N
1516310495.9,286047000.2,N
1516310515.8,286047000.1,N
1516310535.6,286047000.1,N
1516310555.4,286047000.1,N
1516310575.3,286047000.1,N
1516310595.1,286047000.2,N
1516310596.0,286047000.2,N
1516310615.8,286047000.1,N
1516310635.6,286047000.1,N
1516310655.5,286047000.1,N
1516310675.3,286047000.1,N
1516310695.1,286046999.8,N
1516310715.9,286046999.8,N
1516310735.7,286046999.8,N
1516310755.5,286046999.8,N
1516310775.4,286046999.7,N
1516310795.2,286046999.8,N
1516310815.0,286046999.7,N
1516310815.9,286046999.7,N
1516310835.8,286047002.8,Y
1516310855.6,286047002.8,P
1516310875.4,286047002.7,N
1516310895.3,286047002.8,N
1516310915.1,286047002.7,N
1516310916.0,286047002.7,N
1516310935.8,286047002.4,N
1516310955.7,286047002.4,N
1516310975.5,286047002.7,Y
1516310995.3,286046998.3,P
1516311015.2,286046998.6,N
1516311035.9,286046998.6,N
1516311055.7,286046998.6,N
1516311075.6,286046998.2,N
1516311095.4,286046998.2,N
1516311115.2,286046998.1,N
1516311135.0,286047001.2,N
1516311135.9,286047001.2,N
1516311155.8,286047001.2,N
1516311175.6,286047000.8,N
1516311195.4,286047000.8,N
1516311215.3,286047001.0,N
1516311235.1,286047001.0,N
1516311255.8,286047001.0,N
1516311275.7,286047000.9,N
1516311295.5,286047000.6,N
1516311315.3,286047000.5,N
1516311335.2,286047000.5,N
1516311355.9,286047000.5,N
1516311375.7,286047000.3,N
1516311395.5,286047000.0,N
1516311415.4,286046999.9,N
1516311435.2,286047000.2,N
1516311455.0,286047000.2,N
1516311455.9,286047000.2,N
1516311475.8,286046999.8,N
1516311495.6,286047002.8,N
1516311515.4,286047002.7,N
1516311535.3,286047002.4,N
1516311555.1,286047002.3,N
1516311556.0,286047002.3,N
1516311575.8,286047002.6,N
1516311595.7,286047002.2,N
1516311615.5,286047002.1,N
1516311635.3,286047002.0,N
1516311655.2,286047002.0,N
1516311675.9,286047001.9,N
1516311695.7,286047001.6,N
1516311715.6,286047001.5,N
1516311735.4,286047001.5,N
1516311755.2,286047001.7,N
1516311775.0,286047001.8,N
1516311775.9,286047001.8,N
1516311795.8,286047001.7,N
1516311815.6,286047001.4,N
1516311835.4,286047001.3,N
1516311855.3,286047004.3,Y
1516311875.1,286047002.7,P
1516311895.8,286047002.3,P
1516311915.7,286047002.3,P
1516311935.5,286047002.4,Y
1516311955.3,286046998.1,P
1516311975.2,286047000.7,N
1516311995.0,286047001.1,N
1516311995.9,286047001.1,N
1516312015.7,286047000.7,N
1516312035.6,286047000.8,N
1516312055.4,286047000.7,N
1516312075.2,286047000.6,N
1516312095.1,286047000.5,N
1516312096.0,286047000.5,N
1516312115.8,286047000.4,N
1516312135.6,286047000.5,N
1516312155.5,286047000.3,N
1516312175.3,286047000.1,N
1516312195.1,286047000.1,N
1516312215.9,286046999.7,N
1516312235.7,286046999.7,N
1516312255.5,286047002.7,Y
1516312275.4,286047000.1,P
1516312295.2,286047000.2,N
1516312315.0,286047000.2,N
1516312315.9,286047000.2,N
1516312335.8,286046999.7,Y
1516312355.6,286047000.2,P
1516312375.4,286047000.1,P
1516312395.3,286047000.1,N
1516312415.1,286046999.8,Y
1516312416.0,286046999.8,P
1516312435.8,286047000.1,N
1516312455.7,286047000.1,N
1516312475.5,286046999.8,N
1516312495.3,286047000.1,N
1516312515.2,286046999.7,N
1516312535.9,286046999.7,N
1516312555.7,286047002.8,Y
1516312575.6,286047002.4,P
1516312595.4,286047002.6,N
1516312615.2,286047002.5,N
1516312635.0,286047002.2,N
1516312635.9,286047002.2,N
1516312655.8,286047002.1,N
1516312675.6,286047002.0,N
1516312695.4,286047002.0,N
1516312715.3,286047001.9,N
1516312735.1,286047001.6,N
1516312755.8,286047001.5,N
1516312775.7,286047001.6,N
1516312795.5,286047001.9,N
